ニート彗星

334P/NEAT (2017)

English version
Home page
Updated on July 7, 2017

---------------------------------------------------------------------

・ プロフィール

符号 334P/2016 A4
検出日 2016年1月7日、10日
検出光度 20.1等、19.8等
検出者 K. Sarneczky, S. Kurti, P. Szekely (Piszkesteto Station of Konkoly Observatory), E. Schwab, P. Ruiz (European Space Agency's Optical Ground Station, Tenerife)

・ 写真集

・ 軌道要素

Epoch 2017 May 7.0 TT = JDT 2457880.5
T 2017 May 5.37340 TT                                   MPCW
q   4.1846223            (2000.0)            P               Q
n   0.05901019     Peri.   80.52023     -0.93892611     -0.10986011
a   6.5340838      Node    92.65264     -0.01672573     -0.93198098
e   0.3595702      Incl.   19.05411     +0.34371211     -0.34545941
P  16.70
From 272 observations 2001 Feb. 24-2017 Apr. 30, mean residual 0".6.

・ 光度変化

        m1 = 6.5 + 5 logΔ + 15.0 log r

---------------------------------------------------------------------

軌道要素はM.P.E.C. 2017-J52に掲載されたものです。
光度グラフはComet for Windowsで作成したものです。

---------------------------------------------------------------------

Copyright(C) Seiichi Yoshida (comet@aerith.net). All rights reserved.